Simultaneous Nadir Overpasses (SNOs) Predictions

Prediction of SNOs between METOP-A and NOAA-19 Satellite Orbit:

Table of predicted SNOs for the next 14.0 days since TLE Epoch: 1/28/2012
Index Date Time (METOP-A) METOP-A Lat,Lon NOAA-19 Lat,Lon Distance(km) Time Diff (sec)
1 01/29/2012 10:13:08 75.15, 24.30 75.14, 14.12 289.65 42
2 01/29/2012 11:04:11 -74.13,-171.14 -74.15,-175.89 144.22 62
3 01/29/2012 11:55:07 73.32, -5.73 73.37, -6.77 33.73 72
4 01/29/2012 12:45:54 -73.07, 161.05 -73.10, 161.09 2.73 61
5 01/29/2012 13:36:34 73.05, -31.66 73.05, -31.56 3.11 40
6 01/29/2012 14:27:16 -73.06, 135.68 -73.07, 135.63 1.99 18
7 01/29/2012 15:17:56 73.04, -57.03 73.02, -57.03 1.43 3
8 01/29/2012 16:08:39 -72.99, 110.19 -72.99, 110.27 2.74 23
9 01/29/2012 16:59:19 72.97, -82.52 73.00, -82.49 3.38 45
10 01/29/2012 17:50:01 -72.97, 84.81 -72.97, 84.81 0.69 66
11 01/29/2012 18:40:51 72.44,-108.94 72.47,-106.90 68.65 68
12 01/29/2012 19:31:50 -71.58, 56.74 -71.63, 61.96 183.16 56
13 01/29/2012 20:22:52 70.40,-137.91 70.44,-128.73 341.94 33
14 02/08/2012 05:52:51 -75.33, -90.12 -75.34,-101.40 317.18 38
15 02/08/2012 06:43:49 74.43, 74.71 74.43, 68.47 186.05 56
16 02/08/2012 07:34:51 -73.46,-120.34 -73.50,-121.98 52.09 71
17 02/08/2012 08:25:38 73.07, 46.14 73.08, 46.23 3.06 67
18 02/08/2012 09:16:20 -73.10,-146.49 -73.08,-146.55 2.69 43
19 02/08/2012 10:07:00 73.06, 20.76 73.05, 20.77 0.88 24
20 02/08/2012 10:57:43 -73.03,-171.98 -73.05,-172.01 2.70 1
21 02/08/2012 11:48:22 73.04, -4.62 73.02, -4.70 3.12 19
22 02/08/2012 12:39:06 -72.96, 162.53 -72.97, 162.63 3.63 40
23 02/08/2012 13:29:45 72.97, -30.11 72.95, -30.06 3.06 60
24 02/08/2012 14:20:34 -72.64, 136.52 -72.65, 137.80 42.53 71
25 02/08/2012 15:11:29 71.83, -57.72 71.86, -53.37 150.71 60




NCC Satellite Simultaneous Nadir Overpasses (SNOs) Prediction Service
